sat.trackr.live / text

‹ back to catalog

KUIPER-00646

NORAD 69789 · 2026-151AC

PAYLOAD ACTIVE UNKNOWN

§ Identity

Operator
Country
US
Launch date
2026-07-02
Launch site
AFETR
Launch vehicle
Mass (kg)
RCS (m²)

External: N2YO · Heavens-Above · Gunter

§ Orbital elements

Epoch: 2026-09-20T00:10:09.469920Z

Period
97.30 min
Inclination
51.8978°
Eccentricity
0.0000605
Mean motion
14.79925634 rev/d
Perigee alt
629.1 km
Apogee alt
630.0 km
Semi-major
7,007.7 km
B*
-9.1543e-5
RAAN
226.4651°
Arg perigee
92.7990°
Mean anomaly
267.3041°
Rev number
1,216

§ Raw data

KUIPER-006461 69789U 26151AC  26263.00705405 -.00000919  00000+0 -91543-4 0  99902 69789  51.8978 226.4651 0000605  92.7990 267.3041 14.79925634 12165

JSON: /api/v1/satellites/69789 · /tle

For live sub-satellite position, see the globe view (requires WebGL).

§ Visibility from observer

Set your observer location to see the next 7 days of passes ≥ 10°. The values pass through the URL so the page stays shareable.

No JS? Fill the form by hand. The geolocation button needs JavaScript.